To NAV CANADA Home Page Login to a new session Search on AWWS site Feedback and Comments Disclaimer Vers la page française équivalente Tips FAQ What's new on the site To the Forecasts and Observations / NOTAM section To "File a Flight Plan" website Publications and other links Update of the User's profile FIC Telephone Numbers My Weather Data Folder Route Weather Data Regional Weather Data Local Weather Data To the Forecasts and Observations / NOTAM section
Request Generated 09/04/2015 at 14:29:01 UTC . Weather information available at that time is displayed.

METAR/TAF

PAULATUK/PAULATUK (NORA ALIQATCHIALUK RUBEN)/NT    

METAR CYPC 041400Z 22002KT 10SM OVC025 06/05 A3017 RMK SC8 SLP217=
METAR CYPC 041300Z 23005KT 10SM OVC020 06/05 A3018 RMK ST8
6.3/5.4/0.8 SLP219=
LWIS CYPC 041200Z AUTO 14003KT 06/05 A3018=

*** REMARK        : Forecast period has ended; this was the last TAF issued
*** REMARQUE : La période de prévision est échue; ceci était le dernier TAF qui a été émis
TAF AMD CYPC 032113Z 0319/0323 FCST CNCLD DUE NO OBS
RMK NXT FCST WILL BE ISSUED AT 041445Z=
Your time UTC time
Weather data provided by Environment Canada and NAV CANADA